DeLand, FL

3:39 AM EDT on October 19, 2017 (GMT -0400)
De Land Municipal-Taylor

Weather History for KDED - November, 2012

Change the Weather History Date:

Wednesday, November 21, 2012

  Actual Average Record
Temperature  
Mean Temperature 61 °F -  
Max Temperature 71 °F 74 °F 75 °F (2015)
Min Temperature 51 °F 51 °F 37 °F (2016)
Degree Days  
Heating Degree Days 4    
Growing Degree Days 11 (Base 50)    
Moisture  
Dew Point 49 °F    
Average Humidity 74    
Maximum Humidity 100    
Minimum Humidity 35    
Precipitation  
Precipitation 0.00 in - - ()
Sea Level Pressure  
Sea Level Pressure 30.06 in    
Wind  
Wind Speed 5 mph ()    
Max Wind Speed 14 mph    
Max Gust Speed 18 mph    
Visibility 7.9 miles    
Events      
Averages and records for this station are not official NWS values.
T = Trace of Precipitation, MM = Missing Value Source: Averaged Metar Reports

Daily Weather History Graph

Daily Weather History Graph

Search for Another Location

Airport or City:

Trip Planner

Search our weather history database for the weather conditions in past years. The results will help you decide how hot, cold, wet, or windy it might be!

Date:

Astronomy

Nov. 21, 2012 Rise Set
Actual Time 6:53 AM EST 5:28 PM EST
Civil Twilight 6:28 AM EST 5:53 PM EST
Nautical Twilight 5:59 AM EST 6:22 PM EST
Astronomical Twilight 5:31 AM EST 6:50 PM EST
Moon 1:17 PM EST (11/21) 12:40 AM EST (11/21)
Length of Visible Light 11h 25m
Length of Day
10h 34m
First Quarter, 61% of the Moon is Illuminated
Nov 21
First Quarter
Nov 28
Full
Dec 6
Last Quarter
Dec 13
New
Dec 20
First Quarter

Hourly Weather History & Observations

Time (EST) Temp. Dew Point Humidity Pressure Visibility Wind Dir Wind Speed Gust Speed Precip Events Conditions
12:15 AM 53.6 °F 51.8 °F 94% 30.05 in 7.0 mi Calm Calm - N/A   Clear
12:55 AM 53.6 °F 51.8 °F 94% 30.06 in 7.0 mi SE 6.9 mph - N/A   Clear
1:15 AM 53.6 °F 51.8 °F 94% 30.05 in 7.0 mi SSE 4.6 mph - N/A   Clear
1:35 AM 53.6 °F 51.8 °F 94% 30.04 in 7.0 mi Calm Calm - N/A   Clear
1:55 AM 53.6 °F 51.8 °F 94% 30.04 in 7.0 mi Calm Calm - N/A   Clear
2:15 AM 53.6 °F 51.8 °F 94% 30.03 in 5.0 mi Calm Calm - N/A   Clear
2:35 AM 53.6 °F 51.8 °F 94% 30.03 in 5.0 mi Calm Calm - N/A   Clear
2:55 AM 53.6 °F 51.8 °F 94% 30.03 in 6.0 mi SSE 4.6 mph - N/A   Clear
3:15 AM 55.4 °F 53.6 °F 94% 30.04 in 7.0 mi SSE 3.5 mph - N/A   Clear
3:35 AM 55.4 °F 53.6 °F 94% 30.03 in 6.0 mi South 5.8 mph - N/A   Clear
3:55 AM 53.6 °F 51.8 °F 94% 30.03 in 7.0 mi South 5.8 mph - N/A   Clear
4:15 AM 53.6 °F 51.8 °F 94% 30.03 in 7.0 mi South 5.8 mph - N/A   Clear
4:35 AM 53.6 °F 51.8 °F 94% 30.04 in 5.0 mi South 6.9 mph - N/A   Clear
4:55 AM 53.6 °F 51.8 °F 94% 30.04 in 5.0 mi South 5.8 mph - N/A   Clear
5:15 AM 53.6 °F 51.8 °F 94% 30.04 in 5.0 mi South 5.8 mph - N/A   Clear
5:35 AM 53.6 °F 51.8 °F 94% 30.05 in 5.0 mi South 5.8 mph - N/A   Clear
5:55 AM 53.6 °F 51.8 °F 94% 30.05 in 4.0 mi SSW 5.8 mph - N/A   Clear
6:15 AM 53.6 °F 51.8 °F 94% 30.05 in 5.0 mi SSW 6.9 mph - N/A   Clear
6:35 AM 53.6 °F 51.8 °F 94% 30.06 in 4.0 mi Calm Calm - N/A   Clear
6:55 AM 51.8 °F 51.8 °F 100% 30.06 in 5.0 mi South 5.8 mph - N/A   Clear
7:15 AM 53.6 °F 51.8 °F 94% 30.06 in 5.0 mi South 6.9 mph - N/A   Clear
7:35 AM 53.6 °F 51.8 °F 94% 30.07 in 7.0 mi SSE 4.6 mph - N/A   Clear
7:55 AM 55.4 °F 53.6 °F 94% 30.08 in 8.0 mi SSE 5.8 mph - N/A   Clear
8:15 AM 57.2 °F 53.6 °F 88% 30.08 in 8.0 mi SSE 4.6 mph - N/A   Clear
8:35 AM 59.0 °F 55.4 °F 88% 30.09 in 9.0 mi SSE 8.1 mph - N/A   Clear
8:55 AM 60.8 °F 55.4 °F 82% 30.09 in 9.0 mi SSE 9.2 mph - N/A   Clear
9:15 AM 60.8 °F 55.4 °F 82% 30.10 in 8.0 mi SSE 8.1 mph - N/A   Clear
9:55 AM 64.4 °F 53.6 °F 68% 30.10 in 10.0 mi South 10.4 mph 16.1 mph N/A   Clear
10:15 AM 64.4 °F 53.6 °F 68% 30.10 in 10.0 mi SSE 12.7 mph - N/A   Clear
10:35 AM 66.2 °F 51.8 °F 60% 30.10 in 9.0 mi South 11.5 mph 16.1 mph N/A   Clear
10:55 AM 66.2 °F 51.8 °F 60% 30.09 in 10.0 mi South 12.7 mph 18.4 mph N/A   Clear
11:15 AM 66.2 °F 51.8 °F 60% 30.09 in 9.0 mi South 10.4 mph - N/A   Clear
11:35 AM 66.2 °F 50.0 °F 56% 30.08 in 10.0 mi SW 11.5 mph - N/A   Clear
11:55 AM 68.0 °F 46.4 °F 46% 30.08 in 9.0 mi NNE 13.8 mph 17.3 mph N/A   Clear
12:15 PM 69.8 °F 46.4 °F 43% 30.06 in 8.0 mi West 11.5 mph - N/A   Clear
12:35 PM 69.8 °F 46.4 °F 43% 30.06 in 9.0 mi SSW 11.5 mph - N/A   Clear
12:55 PM 69.8 °F 46.4 °F 43% 30.05 in 9.0 mi WSW 12.7 mph - N/A   Clear
1:15 PM 69.8 °F 41.0 °F 35% 30.04 in 10.0 mi NNE 12.7 mph - N/A   Clear
1:35 PM 69.8 °F 44.6 °F 40% 30.04 in 9.0 mi NNE 9.2 mph - N/A   Clear
1:55 PM 71.6 °F 44.6 °F 38% 30.03 in 9.0 mi West 12.7 mph - N/A   Clear
2:15 PM 71.6 °F 42.8 °F 35% 30.03 in 10.0 mi WSW 10.4 mph - N/A   Clear
2:35 PM 71.6 °F 44.6 °F 38% 30.03 in 9.0 mi NNE 13.8 mph - N/A   Clear
2:55 PM 69.8 °F 44.6 °F 40% 30.03 in 9.0 mi NNE 11.5 mph 17.3 mph N/A   Clear
3:15 PM 69.8 °F 44.6 °F 40% 30.03 in 10.0 mi North 9.2 mph - N/A   Clear
3:35 PM 69.8 °F 44.6 °F 40% 30.04 in 9.0 mi NNE 8.1 mph 16.1 mph N/A   Clear
3:55 PM 68.0 °F 44.6 °F 43% 30.04 in 8.0 mi NNE 10.4 mph - N/A   Clear
4:15 PM 66.2 °F 44.6 °F 46% 30.04 in 9.0 mi North 12.7 mph 16.1 mph N/A   Clear
4:35 PM 66.2 °F 46.4 °F 49% 30.05 in 9.0 mi NNE 10.4 mph - N/A   Clear
4:55 PM 64.4 °F 46.4 °F 52% 30.05 in 10.0 mi North 10.4 mph - N/A   Clear
5:15 PM 62.6 °F 48.2 °F 59% 30.06 in 8.0 mi NNE 6.9 mph - N/A   Clear
5:35 PM 60.8 °F 48.2 °F 63% 30.06 in 9.0 mi NNE 6.9 mph - N/A   Clear
5:55 PM 60.8 °F 48.2 °F 63% 30.06 in 10.0 mi NNE 6.9 mph - N/A   Clear
6:15 PM 59.0 °F 48.2 °F 67% 30.07 in 10.0 mi NNE 5.8 mph - N/A   Clear
6:55 PM 57.2 °F 50.0 °F 77% 30.07 in 8.0 mi Calm Calm - N/A   Clear
7:15 PM 55.4 °F 48.2 °F 77% 30.07 in 9.0 mi Calm Calm - N/A   Clear
7:55 PM 55.4 °F 48.2 °F 77% 30.07 in 8.0 mi Calm Calm - N/A   Clear
8:15 PM 53.6 °F 48.2 °F 82% 30.08 in 9.0 mi Calm Calm - N/A   Clear
8:35 PM 53.6 °F 48.2 °F 82% 30.09 in 9.0 mi Calm Calm - N/A   Clear
8:55 PM 53.6 °F 48.2 °F 82% 30.09 in 8.0 mi Calm Calm - N/A   Clear
9:15 PM 53.6 °F 48.2 °F 82% 30.10 in 8.0 mi SSW 4.6 mph - N/A   Clear
9:35 PM 51.8 °F 48.2 °F 88% 30.10 in 8.0 mi Calm Calm - N/A   Clear
9:55 PM 51.8 °F 48.2 °F 88% 30.10 in 7.0 mi Calm Calm - N/A   Clear
10:15 PM 53.6 °F 48.2 °F 82% 30.10 in 8.0 mi Calm Calm - N/A   Clear
10:35 PM 53.6 °F 48.2 °F 82% 30.10 in 9.0 mi Calm Calm - N/A   Clear
10:55 PM 51.8 °F 48.2 °F 88% 30.10 in 8.0 mi Calm Calm - N/A   Clear
11:15 PM 53.6 °F 48.2 °F 82% 30.10 in 9.0 mi SW 4.6 mph - N/A   Clear
11:35 PM 53.6 °F 48.2 °F 82% 30.10 in 9.0 mi Calm Calm - N/A   Clear
11:55 PM 53.6 °F 48.2 °F 82% 30.10 in 9.0 mi Calm Calm - N/A   Clear